Tracking 19164 objects as of 21-May-2018
HD Live streaming from Space Station
objects crossing your sky now

NOAA 16 DEB

Track NOAA 16 DEB now!
10-day predictions


NORAD ID: 41213
Int'l Code: 2000-055DS
Perigee: 820.0 km
Apogee: 874.0 km
Inclination: 99.0 °
Period: 101.7 minutes
Semi major axis: 7217 km
RCS: Unknown
Launch date: September 21, 2000
Source: United States (US)
Launch site: AIR FORCE WESTERN TEST RANGE (AFWTR)

Note: This is SATELLITE DEBRIS
aabbcc
Your satellite tracking list
Your tracking list is empty




NASA's NSSDC Master Catalog

Two Line Element Set (TLE):
1 41213U 00055DS  18140.70940105 +.00001339 +00000-0 +70039-3 0  9999
2 41213 098.9818 228.5635 0037418 140.1286 220.2647 14.15727978126308
Source of the keplerian elements: AFSPC